Tracking 19969 objects as of 12-Nov-2019
Live streaming from Space Station
objects crossing your sky now
Track the group of recently launched Starlink satellites

COSMOS 1581

Track COSMOS 1581 now!
COSMOS 1581 is classified as:


NORAD ID: 15095
Int'l Code: 1984-071A
Perigee: 3,617.8 km
Apogee: 36,909.9 km
Inclination: 66.1 °
Period: 721.0 minutes
Semi major axis: 26634 km
RCS: 9.1322 m2 (large)
Launch date: July 3, 1984
Source: Commonwealth of Independent States (former USSR) (CIS)
Launch site: PLESETSK MISSILE AND SPACE COMPLEX (PKMTR)
aabbcc
Your satellite tracking list
Your tracking list is empty




NASA's NSSDC Master Catalog

Two Line Element Set (TLE):
1 15095U 84071A   19314.42689228 +.00000871 +00000-0 +00000-0 0  9995
2 15095 066.1043 234.7563 6249713 046.8155 350.7647 01.99722588232328
Source of the keplerian elements: AFSPC